Regional Weather Roundup
Issued by NWS

Home | Current Version | Previous Version | Text Only | Print | Product List | Glossary Off
Versions: 1 2 3 4 5 6 7 8 9 10 11 12 13 14 15 16 17 18 19 20 21 22 23 24 25 26 27 28 29 30 31 32 33 34 35 36 37 38 39 40 41 42 43 44 45 46 47 48 49 50

000
ASUS43 KFSD 271310
RWRSD

WEATHER ROUNDUP FOR SOUTH DAKOTA
NATIONAL WEATHER SERVICE SIOUX FALLS SD
800 AM CDT FRI MAY 27 2016

NOTE: "FAIR" INDICATES FEW OR NO CLOUDS BELOW 12,000 FEET WITH NO
SIGNIFICANT WEATHER AND/OR OBSTRUCTIONS TO VISIBILITY.


SDZ001>005-009-010-012>017-271400-
NORTHWEST AND NORTH CENTRAL SOUTH DAKOTA

CITY           SKY/WX    TMP DP  RH WIND       PRES   REMARKS
BUFFALO          N/A     53  45  74 W6        29.80S
FAITH            N/A     54  43  66 NW14      29.82S
MOBRIDGE       SUNNY     54  48  80 NW10      29.78S
$$

SDZ012>016-024>037-041>051-057-063-072>074-271400-
SOUTHWEST AND SOUTH CENTRAL SOUTH DAKOTA

CITY           SKY/WX    TMP DP  RH WIND       PRES   REMARKS
RAPID CTY ARPT CLOUDY    51  44  77 NW10      29.85S
PIERRE         PTSUNNY   54  49  83 N13       29.76R
CUSTER         CLOUDY    46  40  79 NW3       29.91S
ELLSWORTH AFB  CLOUDY    53  45  76 NW7       29.84F
PHILIP         CLOUDY    56  48  74 N12       29.79S
PINE RIDGE     PTSUNNY   51  46  83 SW3       29.82F
WINNER         CLOUDY    58  53  84 N9        29.74F
$$

SDZ004>011-016>023-039-040-271400-
NORTHEAST SOUTH DAKOTA

CITY           SKY/WX    TMP DP  RH WIND       PRES   REMARKS
ABERDEEN       CLOUDY    59  54  83 NE5       29.76S
WATERTOWN      PTSUNNY   62  56  80 NE3       29.74S
BROOKINGS      CLOUDY    60  56  86 S9        29.74
SISSETON         N/A     62  55  77 N5        29.75R
$$

SDZ017-020-022-023-036>040-048>070-271400-
SOUTHEAST SOUTH DAKOTA

CITY           SKY/WX    TMP DP  RH WIND       PRES   REMARKS
SIOUX FALLS    CLOUDY    62  55  77 SE9       29.75R
HURON          CLOUDY    60  58  92 N10       29.71F
CHAMBERLAIN    CLOUDY    61  57  88 N7        29.74F
MITCHELL       CLOUDY    60  59  96 SE7       29.74R
YANKTON        CLOUDY    63  55  77 SE8       29.76R
$$

ABBREVIATIONS USED IN REMARKS
   TC - TEMPERATURE IN CELSIUS
  WCI - WIND CHILL INDEX
   HX - HEAT INDEX
  VSB - VISIBILITY





USA.gov is the U.S. government's official web portal to all federal, state and local government web resources and services.